Location: *
(48.4333°N, 5.0333°W)
Time: 17:25:35
(UTC+00:00)

LilacSat-2 - Pass Details

Date: 23 October 2021
Orbit: 511 x 532 km, 97.5° (Epoch: 29 November)

Event Time Altitude Azimuth Distance (km) Brightness Sun altitude
Rises 06:18:30 0° 13° (NNE) 2,637 ? -6.3°
Reaches altitude 10° 06:20:36 10° 13° (NNE) 1,745 ? -5.9°
Maximum altitude 06:24:22 89° 92° (E) 519 ? -5.3°
Drops below altitude 10° 06:28:06 10° 194° (SSW) 1,731 ? -4.7°
Sets 06:30:11 0° 194° (SSW) 2,614 ? -4.4°
